Tracking 23439 objects as of 16-Jun-2021
HD Live streaming from Space Station
objects crossing your sky now

RFTSAT

Track RFTSAT now!
10-day predictions


NORAD ID: 44417
Int'l Code: 2019-022G
Perigee: 468.8 km
Apogee: 484.0 km
Inclination: 51.6 °
Period: 94.0 minutes
Semi major axis: 6847 km
RCS: Unknown
Launch date: April 17, 2019
Source: United States (US)
Launch site: WALLOPS ISLAND (WLPIS)
aabbcc
Your satellite tracking list
Your tracking list is empty




NASA's NSSDC Master Catalog

Two Line Element Set (TLE):
1 44417U 19022G   21166.77733436  .00002641  00000-0  95334-4 0  9991
2 44417  51.6423  83.8715 0011100 176.1042 184.0027 15.32212176103948
Source of the keplerian elements: AFSPC